Monticello, KY

5:22 AM EDT on July 21, 2017 (GMT -0400)
Wayne County

Weather History for KEKQ - May, 2014

Change the Weather History Date:

Monday, May 26, 2014

  Actual Average Record
Temperature  
Mean Temperature 72 °F -  
Max Temperature 84 °F 77 °F 91 °F (2012)
Min Temperature 59 °F 55 °F 35 °F (1979)
Cooling Degree Days 6    
Growing Degree Days 22 (Base 50)    
Moisture  
Dew Point 63 °F    
Average Humidity 85    
Maximum Humidity 100    
Minimum Humidity 53    
Precipitation  
Precipitation 0.00 in - - ()
Sea Level Pressure  
Sea Level Pressure 30.15 in    
Wind  
Wind Speed 2 mph (SW)    
Max Wind Speed 13 mph    
Max Gust Speed -    
Visibility 7 miles    
Events      
Averages and records for this station are not official NWS values.
T = Trace of Precipitation, MM = Missing Value Source: NWS Daily Summary

Daily Weather History Graph

Daily Weather History Graph

Search for Another Location

Airport or City:

Trip Planner

Search our weather history database for the weather conditions in past years. The results will help you decide how hot, cold, wet, or windy it might be!

Date:

Astronomy

May. 26, 2014 Rise Set
Actual Time 5:24 AM CDT 7:49 PM CDT
Civil Twilight 4:54 AM CDT 8:18 PM CDT
Nautical Twilight 4:17 AM CDT 8:55 PM CDT
Astronomical Twilight 3:37 AM CDT 9:36 PM CDT
Moon 4:02 AM CDT (5/26) 5:53 PM CDT (5/26)
Length of Visible Light 15h 24m
Length of Day
14h 24m
Waning Crescent, 5% of the Moon is Illuminated
May 26
Waning Crescent
May 28
New
Jun 5
First Quarter
Jun 12
Full
Jun 19
Last Quarter

Hourly Weather History & Observations

Time (CDT) Temp. Heat Index Dew Point Humidity Pressure Visibility Wind Dir Wind Speed Gust Speed Precip Events Conditions
12:56 AM 63.0 °F - 63.0 °F 100% 30.14 in 7.0 mi Calm Calm - N/A   Clear
1:56 AM 61.0 °F - 61.0 °F 100% 30.13 in 5.0 mi Calm Calm - N/A   Clear
2:56 AM 63.9 °F - 63.0 °F 97% 30.14 in 8.0 mi Calm Calm - N/A   Clear
3:56 AM 59.9 °F - 59.9 °F 100% 30.16 in 1.2 mi Calm Calm - N/A   Clear
3:58 AM 60.8 °F - 60.8 °F 100% 30.16 in 0.8 mi Calm Calm - N/A   Clear
4:10 AM 60.8 °F - 60.8 °F 100% 30.16 in 1.2 mi Calm Calm - N/A   Clear
4:16 AM 59.0 °F - 59.0 °F 100% 30.16 in 2.5 mi Calm Calm - N/A   Clear
4:23 AM 60.8 °F - 59.0 °F 94% 30.16 in 5.0 mi Calm Calm - N/A   Clear
4:48 AM 59.0 °F - 59.0 °F 100% 30.16 in 1.5 mi Calm Calm - N/A   Clear
4:56 AM 59.0 °F - 59.0 °F 100% 30.17 in 1.2 mi Calm Calm - N/A   Clear
4:59 AM 59.0 °F - 59.0 °F 100% 30.16 in 2.0 mi Calm Calm - N/A   Clear
5:21 AM 59.0 °F - 59.0 °F 100% 30.17 in 4.0 mi Calm Calm - N/A   Clear
5:56 AM 59.0 °F - 57.9 °F 96% 30.18 in 5.0 mi Calm Calm - N/A   Clear
6:56 AM 65.8 °F - 63.0 °F 90% 30.19 in 10.0 mi Calm Calm - N/A   Partly Cloudy
7:56 AM 70.9 °F - 63.9 °F 78% 30.19 in 10.0 mi Calm Calm - N/A   Clear
8:56 AM 77.0 °F - 66.9 °F 71% 30.20 in 10.0 mi South 8.1 mph - N/A   Clear
10:56 AM 82.9 °F 85.4 °F 66.9 °F 58% 30.19 in 10.0 mi West 11.5 mph - N/A   Scattered Clouds
11:56 AM 83.8 °F 86.5 °F 66.9 °F 57% 30.18 in 10.0 mi WSW 10.4 mph - N/A   Partly Cloudy
1:56 PM 83.8 °F 86.5 °F 66.9 °F 57% 30.14 in 10.0 mi WSW 12.7 mph - N/A   Mostly Cloudy
2:56 PM 84.9 °F 87.1 °F 65.8 °F 53% 30.13 in 10.0 mi WSW 12.7 mph - N/A   Clear
4:56 PM 81.9 °F 83.9 °F 65.8 °F 58% 30.11 in 10.0 mi SW 5.8 mph - N/A   Clear
5:56 PM 81.9 °F 83.9 °F 65.8 °F 58% 30.10 in 10.0 mi SW 8.1 mph - N/A   Clear
6:56 PM 79.9 °F - 66.9 °F 64% 30.10 in 10.0 mi SSW 5.8 mph - N/A   Clear
7:56 PM 73.9 °F - 65.8 °F 76% 30.10 in 10.0 mi Calm Calm - N/A   Clear
8:56 PM 68.9 °F - 64.9 °F 87% 30.12 in 10.0 mi Calm Calm - N/A   Clear
9:56 PM 66.9 °F - 64.9 °F 93% 30.13 in 10.0 mi Calm Calm - N/A   Clear
10:56 PM 68.9 °F - 65.8 °F 90% 30.13 in 10.0 mi Calm Calm - N/A   Clear
11:56 PM 65.8 °F - 64.9 °F 97% 30.12 in 7.0 mi Calm Calm - N/A   Clear